Total_Precipitation_Accumulation
1.99 2.55 3.13 3.64 4.28 4.93 5.36 5.24 4.57 3.89 3.15 2.56 2.03 1.78 1.59 1.38 1.21 1.13 0.96 0.85 0.73 0.64 0.58 0.49 0.48 0.43 0.42 0.44 0.47 0.55 0.62 0.65 0.72 0.83 0.83 0.74 0.71 0.72 0.72 0.68 0.73 0.77 0.88
1.94 2.60 3.16 3.41 3.35 3.49 3.58 3.09 2.81 2.56 2.11 1.79 1.52 1.30 1.20 1.02 0.86 0.82 0.73 0.58 0.53 0.52 0.47 0.45 0.41 0.40 0.40 0.39 0.41 0.46 0.50 0.53 0.59 0.67 0.69 0.65 0.65 0.65 0.54 0.61 0.63 0.67 0.83
2.00 2.45 2.60 2.62 2.51 2.42 2.29 1.92 1.72 1.80 1.66 1.54 1.40 1.21 1.15 1.04 0.84 0.68 0.60 0.49 0.39 0.38 0.40 0.41 0.41 0.40 0.36 0.35 0.37 0.37 0.39 0.41 0.43 0.51 0.59 0.60 0.59 0.53 0.49 0.51 0.54 0.61 0.70
1.97 1.91 1.54 1.39 1.52 1.57 1.58 1.67 1.59 1.52 1.37 1.33 1.10 0.86 0.71 0.64 0.55 0.51 0.48 0.45 0.37 0.31 0.31 0.33 0.36 0.35 0.34 0.35 0.28 0.28 0.33 0.35 0.32 0.35 0.43 0.42 0.46 0.53 0.53 0.48 0.50 0.57 0.56
1.05 0.81 0.69 0.72 0.93 1.14 1.34 1.63 1.60 1.41 1.22 1.16 1.08 0.99 0.82 0.74 0.64 0.58 0.56 0.51 0.47 0.39 0.30 0.27 0.29 0.33 0.37 0.42 0.37 0.34 0.32 0.31 0.28 0.29 0.36 0.36 0.31 0.37 0.47 0.48 0.46 0.48 0.40
0.47 0.46 0.51 0.65 0.83 0.99 1.07 1.22 1.30 1.37 1.32 1.26 1.15 1.10 0.99 0.89 0.77 0.64 0.56 0.52 0.47 0.45 0.40 0.37 0.39 0.41 0.38 0.38 0.38 0.40 0.39 0.37 0.34 0.28 0.30 0.43 0.40 0.31 0.37 0.38 0.42 0.42 0.29
0.31 0.43 0.45 0.55 0.60 0.71 0.73 0.79 0.85 0.98 1.05 1.09 1.09 1.08 1.00 0.90 0.79 0.67 0.56 0.52 0.42 0.38 0.38 0.39 0.44 0.45 0.43 0.39 0.35 0.36 0.40 0.46 0.47 0.36 0.28 0.31 0.42 0.37 0.32 0.32 0.31 0.34 0.33
0.15 0.17 0.21 0.26 0.32 0.45 0.54 0.58 0.63 0.64 0.63 0.65 0.75 0.82 0.78 0.73 0.70 0.71 0.57 0.48 0.46 0.43 0.40 0.37 0.36 0.36 0.37 0.38 0.34 0.29 0.30 0.36 0.45 0.47 0.47 0.42 0.35 0.42 0.37 0.31 0.34 0.39 0.44
0.06 0.08 0.11 0.16 0.23 0.28 0.37 0.46 0.47 0.47 0.48 0.51 0.55 0.57 0.57 0.58 0.59 0.59 0.52 0.44 0.46 0.44 0.40 0.35 0.31 0.29 0.30 0.32 0.34 0.31 0.30 0.30 0.30 0.37 0.50 0.52 0.41 0.38 0.39 0.38 0.43 0.57 0.55
0.06 0.06 0.08 0.11 0.16 0.20 0.30 0.40 0.40 0.38 0.42 0.48 0.50 0.45 0.50 0.53 0.53 0.51 0.48 0.43 0.41 0.40 0.38 0.33 0.28 0.25 0.24 0.25 0.29 0.30 0.33 0.37 0.38 0.39 0.44 0.54 0.58 0.51 0.48 0.48 0.53 0.66 0.66
0.08 0.07 0.07 0.10 0.11 0.16 0.22 0.29 0.34 0.33 0.34 0.38 0.43 0.45 0.47 0.53 0.51 0.48 0.50 0.47 0.44 0.42 0.40 0.36 0.32 0.26 0.23 0.24 0.27 0.29 0.33 0.38 0.46 0.54 0.53 0.53 0.63 0.71 0.66 0.64 0.64 0.69 0.75
0.13 0.09 0.08 0.11 0.10 0.13 0.18 0.23 0.25 0.27 0.29 0.34 0.40 0.41 0.43 0.47 0.48 0.44 0.45 0.46 0.49 0.49 0.45 0.40 0.38 0.31 0.27 0.28 0.30 0.29 0.32 0.39 0.48 0.62 0.77 0.78 0.73 0.71 0.69 0.68 0.68 0.73 0.85
0.17 0.12 0.10 0.12 0.11 0.11 0.15 0.19 0.22 0.27 0.29 0.33 0.40 0.44 0.40 0.40 0.44 0.46 0.43 0.41 0.45 0.51 0.54 0.50 0.46 0.41 0.40 0.40 0.37 0.35 0.36 0.37 0.41 0.52 0.74 0.93 1.07 0.98 0.80 0.70 0.67 0.73 0.87
0.12 0.11 0.11 0.12 0.16 0.16 0.18 0.21 0.27 0.28 0.31 0.37 0.41 0.45 0.43 0.42 0.45 0.50 0.53 0.51 0.49 0.54 0.61 0.62 0.61 0.56 0.51 0.47 0.44 0.48 0.48 0.44 0.42 0.46 0.54 0.65 0.86 1.02 1.07 0.94 0.80 0.78 0.85
0.18 0.16 0.17 0.16 0.17 0.20 0.25 0.31 0.40 0.41 0.44 0.54 0.61 0.65 0.62 0.60 0.61 0.63 0.63 0.65 0.65 0.64 0.73 0.76 0.74 0.71 0.66 0.56 0.55 0.61 0.54 0.56 0.54 0.52 0.52 0.48 0.54 0.67 0.82 0.91 0.97 0.95 0.88
0.23 0.21 0.21 0.23 0.21 0.23 0.29 0.36 0.44 0.50 0.61 0.79 0.90 0.91 0.92 0.92 0.90 0.87 0.81 0.84 0.90 0.97 0.98 0.95 0.92 0.87 0.73 0.68 0.64 0.62 0.59 0.61 0.62 0.61 0.58 0.51 0.46 0.47 0.55 0.65 0.78 0.92 0.95
0.29 0.28 0.29 0.34 0.33 0.35 0.37 0.39 0.43 0.53 0.68 0.80 0.89 0.96 0.98 0.99 1.05 1.08 1.07 1.06 1.10 1.11 1.12 1.11 1.08 1.02 0.98 0.85 0.67 0.59 0.58 0.58 0.62 0.68 0.71 0.54 0.40 0.46 0.49 0.56 0.59 0.65 0.75
0.37 0.40 0.39 0.41 0.44 0.47 0.47 0.53 0.65 0.74 0.83 0.91 0.95 1.03 1.08 1.12 1.15 1.12 1.07 1.01 1.01 0.98 0.95 0.93 0.92 0.96 0.91 0.81 0.63 0.54 0.51 0.55 0.58 0.62 0.64 0.61 0.49 0.48 0.51 0.54 0.53 0.50 0.50
0.42 0.45 0.50 0.52 0.57 0.65 0.66 0.67 0.77 0.90 0.99 1.01 1.07 1.15 1.21 1.24 1.15 1.06 1.04 0.96 0.91 0.82 0.74 0.70 0.72 0.78 0.81 0.77 0.62 0.59 0.54 0.55 0.55 0.55 0.58 0.60 0.54 0.47 0.39 0.43 0.44 0.43 0.43
0.45 0.50 0.59 0.63 0.65 0.74 0.80 0.81 0.84 0.90 0.96 0.97 0.99 1.04 1.11 1.23 1.25 1.14 1.09 1.04 1.01 0.92 0.86 0.78 0.75 0.75 0.83 0.82 0.65 0.60 0.56 0.59 0.61 0.71 0.73 0.67 0.57 0.49 0.36 0.37 0.42 0.40 0.37
0.43 0.45 0.51 0.61 0.65 0.71 0.79 0.85 0.83 0.79 0.79 0.77 0.75 0.81 0.92 1.00 1.03 1.05 1.05 1.09 1.08 1.02 0.91 0.78 0.71 0.70 0.76 0.82 0.68 0.58 0.57 0.61 0.69 0.77 0.85 0.81 0.66 0.48 0.37 0.34 0.36 0.33 0.37
0.38 0.40 0.45 0.53 0.61 0.69 0.80 0.88 0.85 0.81 0.79 0.80 0.82 0.86 0.90 0.87 0.82 0.87 0.91 0.96 0.99 0.94 0.84 0.72 0.65 0.64 0.61 0.59 0.60 0.48 0.44 0.49 0.61 0.72 0.88 0.91 0.75 0.55 0.41 0.33 0.29 0.26 0.27
0.33 0.32 0.35 0.42 0.53 0.68 0.82 0.90 0.87 0.91 0.92 0.90 0.91 0.92 0.91 0.89 0.87 0.85 0.80 0.77 0.77 0.70 0.61 0.52 0.53 0.56 0.55 0.48 0.41 0.34 0.27 0.31 0.47 0.62 0.85 0.95 0.82 0.68 0.54 0.43 0.38 0.32 0.28
0.27 0.27 0.28 0.33 0.40 0.48 0.58 0.69 0.73 0.78 0.86 0.86 0.79 0.71 0.70 0.69 0.73 0.76 0.72 0.71 0.67 0.61 0.54 0.48 0.51 0.51 0.50 0.45 0.43 0.40 0.31 0.30 0.42 0.50 0.63 0.78 0.84 0.77 0.70 0.60 0.48 0.39 0.35
0.27 0.29 0.31 0.34 0.36 0.39 0.44 0.51 0.60 0.69 0.79 0.81 0.76 0.70 0.65 0.63 0.63 0.66 0.67 0.62 0.60 0.51 0.47 0.46 0.51 0.49 0.46 0.39 0.34 0.39 0.41 0.41 0.46 0.47 0.60 0.76 0.89 0.91 0.88 0.85 0.74 0.63 0.56
0.34 0.38 0.40 0.39 0.38 0.39 0.42 0.46 0.53 0.63 0.73 0.74 0.66 0.63 0.61 0.62 0.63 0.61 0.62 0.55 0.44 0.39 0.36 0.36 0.39 0.41 0.35 0.26 0.19 0.21 0.26 0.27 0.30 0.35 0.53 0.70 0.87 1.00 1.05 1.08 1.02 0.92 0.82